Comanche, TX

7:22 AM CDT on June 27, 2017 (GMT -0500)
Comanche

Weather History for KMKN - January, 2014

Change the Weather History Date:

Monday, January 27, 2014

  Actual Average (KSEP) Record (KSEP)
Temperature  
Mean Temperature 40 °F -  
Max Temperature 52 °F 58 °F 78 °F (1953)
Min Temperature 27 °F 33 °F 10 °F (1963)
Degree Days  
Heating Degree Days 26    
Moisture  
Dew Point 7 °F    
Average Humidity 31    
Maximum Humidity 61    
Minimum Humidity 21    
Precipitation  
Precipitation 0.00 in - - ()
Sea Level Pressure  
Sea Level Pressure 30.15 in    
Wind  
Wind Speed 15 mph (North)    
Max Wind Speed 29 mph    
Max Gust Speed 36 mph    
Visibility 10 miles    
Events      
Averages and records for this station are not official NWS values.
T = Trace of Precipitation, MM = Missing Value Source: NWS Daily Summary

Daily Weather History Graph

Daily Weather History Graph

Search for Another Location

Airport or City:

Trip Planner

Search our weather history database for the weather conditions in past years. The results will help you decide how hot, cold, wet, or windy it might be!

Date:

Astronomy

Jan. 27, 2014 Rise Set
Actual Time 7:30 AM CST 6:04 PM CST
Civil Twilight 7:04 AM CST 6:29 PM CST
Nautical Twilight 6:35 AM CST 6:59 PM CST
Astronomical Twilight 6:06 AM CST 7:28 PM CST
Moon 4:11 AM CST 2:54 PM CST
Length of Visible Light 11h 24m
Length of Day
10h 33m
Waning Crescent, 14% of the Moon is Illuminated
Jan 27
Waning Crescent
Jan 30
New
Feb 6
First Quarter
Feb 14
Full
Feb 22
Last Quarter

Hourly Weather History & Observations

Time (CST) Temp. Windchill Dew Point Humidity Pressure Visibility Wind Dir Wind Speed Gust Speed Precip Events Conditions
12:15 AM 52.3 °F - 17.6 °F 25% 29.85 in 10.0 mi WNW 6.9 mph - N/A   Clear
12:35 AM 52.0 °F - 18.3 °F 27% 29.85 in 10.0 mi WNW 9.2 mph - N/A   Clear
12:55 AM 52.0 °F - 19.0 °F 27% 29.85 in 10.0 mi NW 8.1 mph - N/A   Clear
1:15 AM 51.1 °F - 19.4 °F 29% 29.85 in 10.0 mi NW 9.2 mph - N/A   Clear
1:35 AM 50.2 °F - 20.3 °F 31% 29.85 in 10.0 mi NW 11.5 mph - N/A   Clear
1:55 AM 49.8 °F - 21.0 °F 32% 29.86 in 10.0 mi NNW 12.7 mph - N/A   Clear
2:15 AM 48.4 °F - 21.9 °F 35% 29.87 in 10.0 mi NNW 12.7 mph - N/A   Clear
2:35 AM 47.5 °F - 23.4 °F 39% 29.87 in 10.0 mi North 11.5 mph - N/A   Clear
2:55 AM 47.1 °F - 24.6 °F 41% 29.88 in 10.0 mi North 9.2 mph - N/A   Clear
3:15 AM 46.8 °F - 25.7 °F 44% 29.90 in 10.0 mi North 11.5 mph - N/A   Clear
3:35 AM 46.4 °F 41.1 °F 26.6 °F 46% 29.93 in 10.0 mi North 11.5 mph - N/A   Clear
3:55 AM 47.3 °F - 27.7 °F 47% 29.94 in 10.0 mi North 17.3 mph 21.9 mph N/A   Clear
4:15 AM 48.0 °F - 28.4 °F 47% 29.95 in 10.0 mi North 17.3 mph 25.3 mph N/A   Clear
4:35 AM 46.8 °F - 28.4 °F 49% 29.97 in 10.0 mi North 19.6 mph 25.3 mph N/A   Clear
4:55 AM 45.7 °F 37.6 °F 28.4 °F 51% 29.99 in 10.0 mi North 21.9 mph 29.9 mph N/A   Clear
5:15 AM 43.7 °F 35.7 °F 28.2 °F 54% 30.01 in 10.0 mi North 18.4 mph 28.8 mph N/A   Clear
5:35 AM 42.4 °F 33.1 °F 28.4 °F 58% 30.03 in 10.0 mi North 23.0 mph 29.9 mph N/A   Clear
5:55 AM 41.2 °F 31.9 °F 28.8 °F 61% 30.05 in 10.0 mi North 20.7 mph 26.5 mph N/A   Clear
6:15 AM 39.2 °F 28.7 °F 26.6 °F 61% 30.07 in 10.0 mi North 23.0 mph 29.9 mph N/A   Clear
6:35 AM 37.4 °F 26.6 °F 24.4 °F 60% 30.09 in 10.0 mi North 21.9 mph 27.6 mph N/A   Clear
6:55 AM 36.0 °F 24.2 °F 21.4 °F 55% 30.11 in 10.0 mi North 24.2 mph 31.1 mph N/A   Clear
7:15 AM 35.6 °F 24.5 °F 19.8 °F 53% 30.13 in 10.0 mi North 20.7 mph 29.9 mph N/A   Clear
7:35 AM 34.2 °F 22.3 °F 17.6 °F 51% 30.14 in 10.0 mi North 21.9 mph 26.5 mph N/A   Clear
7:55 AM 33.8 °F 20.3 °F 12.7 °F 42% 30.16 in 10.0 mi North 28.8 mph 35.7 mph N/A   Clear
8:15 AM 33.3 °F 22.1 °F 12.4 °F 42% 30.17 in 10.0 mi North 18.4 mph 25.3 mph N/A   Clear
8:35 AM 33.4 °F 20.3 °F 7.5 °F 34% 30.19 in 10.0 mi North 26.5 mph 33.4 mph N/A   Clear
8:55 AM 34.0 °F 21.5 °F 7.7 °F 33% 30.21 in 10.0 mi North 24.2 mph 32.2 mph N/A   Clear
9:15 AM 34.2 °F 21.8 °F 4.5 °F 29% 30.23 in 10.0 mi North 24.2 mph 29.9 mph N/A   Clear
9:35 AM 33.3 °F 20.6 °F 4.3 °F 30% 30.24 in 10.0 mi North 24.2 mph 29.9 mph N/A   Clear
9:55 AM 34.2 °F 21.8 °F 3.4 °F 27% 30.25 in 10.0 mi North 24.2 mph 29.9 mph N/A   Clear
10:15 AM 34.2 °F 23.0 °F 2.1 °F 26% 30.27 in 10.0 mi North 19.6 mph 28.8 mph N/A   Clear
10:35 AM 35.2 °F 23.5 °F 1.4 °F 24% 30.27 in 10.0 mi North 23.0 mph 31.1 mph N/A   Clear
10:55 AM 36.0 °F 25.3 °F 1.4 °F 23% 30.27 in 10.0 mi North 19.6 mph 32.2 mph N/A   Clear
11:15 AM 36.7 °F 24.9 °F 1.2 °F 22% 30.28 in 10.0 mi North 25.3 mph 32.2 mph N/A   Clear
11:35 AM 36.5 °F 24.9 °F 0.7 °F 22% 30.27 in 10.0 mi North 24.2 mph 31.1 mph N/A   Clear
11:55 AM 37.0 °F 25.9 °F 1.9 °F 23% 30.27 in 10.0 mi NNE 23.0 mph 31.1 mph N/A   Clear
12:15 PM 37.6 °F 28.1 °F 3.0 °F 24% 30.27 in 10.0 mi NNE 17.3 mph 25.3 mph N/A   Clear
12:35 PM 37.8 °F 26.8 °F 2.8 °F 23% 30.26 in 10.0 mi NNE 23.0 mph 28.8 mph N/A   Clear
12:55 PM 37.8 °F 27.7 °F 3.4 °F 24% 30.24 in 10.0 mi NNE 19.6 mph 26.5 mph N/A   Clear
1:15 PM 36.7 °F 25.7 °F 1.9 °F 23% 30.23 in 10.0 mi North 21.9 mph 27.6 mph N/A   Clear
1:35 PM 37.4 °F 27.2 °F 2.3 °F 23% 30.23 in 10.0 mi North 19.6 mph 26.5 mph N/A   Clear
1:55 PM 39.0 °F 29.6 °F 3.6 °F 23% 30.23 in 10.0 mi North 18.4 mph 27.6 mph N/A   Clear
2:15 PM 38.8 °F 29.1 °F 3.0 °F 22% 30.21 in 10.0 mi North 19.6 mph 28.8 mph N/A   Clear
2:35 PM 37.9 °F 28.2 °F 3.4 °F 24% 30.21 in 10.0 mi NNE 18.4 mph 26.5 mph N/A   Clear
2:55 PM 37.6 °F 27.7 °F 3.0 °F 24% 30.21 in 10.0 mi North 18.4 mph 24.2 mph N/A   Clear
3:15 PM 37.6 °F 27.4 °F 2.3 °F 23% 30.21 in 10.0 mi North 19.6 mph 27.6 mph N/A   Clear
3:35 PM 37.4 °F 27.2 °F 1.9 °F 23% 30.21 in 10.0 mi North 19.6 mph 24.2 mph N/A   Clear
3:55 PM 36.9 °F 26.8 °F 1.9 °F 23% 30.20 in 10.0 mi North 18.4 mph 24.2 mph N/A   Clear
4:15 PM 35.6 °F 25.9 °F 1.2 °F 23% 30.20 in 10.0 mi North 16.1 mph 24.2 mph N/A   Clear
4:35 PM 35.1 °F 25.9 °F 1.6 °F 24% 30.20 in 10.0 mi North 13.8 mph 24.2 mph N/A   Clear
4:55 PM 34.0 °F 23.0 °F -0.6 °F 23% 30.21 in 10.0 mi North 18.4 mph 24.2 mph N/A   Clear
5:15 PM 32.5 °F 21.2 °F -2.2 °F 23% 30.22 in 10.0 mi North 18.4 mph 24.2 mph N/A   Clear
5:35 PM 32.2 °F 21.4 °F -2.9 °F 22% 30.23 in 10.0 mi North 16.1 mph - N/A   Clear
5:55 PM 31.8 °F 20.6 °F -4.0 °F 21% 30.23 in 10.0 mi North 17.3 mph 21.9 mph N/A   Clear
6:15 PM 31.1 °F 20.5 °F -4.9 °F 21% 30.23 in 10.0 mi North 15.0 mph 20.7 mph N/A   Clear
6:35 PM 30.9 °F 20.7 °F -5.1 °F 21% 30.25 in 10.0 mi North 13.8 mph - N/A   Clear
6:55 PM 30.2 °F 19.8 °F -5.4 °F 21% 30.25 in 10.0 mi North 13.8 mph - N/A   Clear
7:15 PM 29.5 °F 18.8 °F -5.6 °F 22% 30.25 in 10.0 mi North 13.8 mph - N/A   Clear
7:35 PM 29.1 °F 18.4 °F -5.6 °F 22% 30.26 in 10.0 mi North 13.8 mph 21.9 mph N/A   Clear
7:55 PM 28.9 °F 17.7 °F -4.9 °F 23% 30.26 in 10.0 mi NNE 15.0 mph - N/A   Clear
8:15 PM 28.2 °F 16.8 °F -6.0 °F 23% 30.26 in 10.0 mi North 15.0 mph 19.6 mph N/A   Clear
8:35 PM 27.9 °F 16.3 °F -5.8 °F 23% 30.26 in 10.0 mi North 15.0 mph - N/A   Clear
8:55 PM 27.5 °F 16.8 °F -6.2 °F 23% 30.27 in 10.0 mi North 12.7 mph - N/A   Clear
9:15 PM 27.5 °F 18.6 °F -5.6 °F 24% 30.27 in 10.0 mi North 9.2 mph - N/A   Mostly Cloudy
9:35 PM 27.9 °F 18.4 °F -5.4 °F 23% 30.27 in 10.0 mi North 10.4 mph - N/A   Overcast
9:55 PM 27.9 °F 19.1 °F -4.9 °F 24% 30.27 in 10.0 mi North 9.2 mph - N/A   Overcast
10:15 PM 27.9 °F 18.4 °F -5.3 °F 24% 30.27 in 10.0 mi North 10.4 mph - N/A   Overcast
10:35 PM 28.0 °F 19.3 °F -4.2 °F 25% 30.27 in 10.0 mi North 9.2 mph - N/A   Mostly Cloudy
10:55 PM 27.9 °F 17.8 °F -5.6 °F 23% 30.28 in 10.0 mi North 11.5 mph - N/A   Mostly Cloudy
11:15 PM 27.7 °F 17.6 °F -5.3 °F 24% 30.29 in 10.0 mi North 11.5 mph - N/A   Overcast
11:35 PM 27.7 °F 17.1 °F -4.9 °F 24% 30.28 in 10.0 mi North 12.7 mph - N/A   Overcast
11:55 PM 27.5 °F 16.8 °F -4.9 °F 24% 30.28 in 10.0 mi North 12.7 mph - N/A   Overcast